New York Downtown Manhattan/w, NY

4:33 PM EST on November 12, 2019 (GMT -0500)
New York Downtown Manhattan/w

Weather History for KJRB - June, 2019

Change the Weather History Date:

Thursday, June 6, 2019

  Actual Average (KEWR) Record (KEWR)
Temperature  
Mean Temperature 76 °F -  
Max Temperature 84 °F 76 °F 94 °F (1953)
Min Temperature 69 °F 60 °F 43 °F (1945)
Cooling Degree Days 12    
Growing Degree Days 26 (Base 50)    
Moisture  
Dew Point 65 °F    
Average Humidity 76    
Maximum Humidity 96    
Minimum Humidity 47    
Precipitation  
Precipitation 0.15 in - - ()
Sea Level Pressure  
Sea Level Pressure 29.74 in    
Wind  
Wind Speed 6 mph ()    
Max Wind Speed 13 mph    
Max Gust Speed -    
Visibility 9.5 miles    
Events Rain    
Averages and records for this station are not official NWS values.
T = Trace of Precipitation, MM = Missing Value Source: Averaged Metar Reports

Daily Weather History Graph

Daily Weather History Graph

Search for Another Location

Airport or City:

Astronomy

Jun. 06, 2019 Rise Set
Actual Time 5:25 AM EDT 8:24 PM EDT
Civil Twilight 4:52 AM EDT 8:57 PM EDT
Nautical Twilight 4:10 AM EDT 9:39 PM EDT
Astronomical Twilight 3:22 AM EDT 10:28 PM EDT
Moon 8:31 AM EDT (6/6) 11:39 PM EDT (6/6)
Length of Visible Light 16h 04m
Length of Day
14h 58m
Waxing Crescent, 13% of the Moon is Illuminated
Jun 6
Waxing Crescent
Jun 10
First Quarter
Jun 17
Full
Jun 25
Last Quarter
Jul 2
New

Hourly Weather History & Observations

Time (EDT) Temp. Heat Index Dew Point Humidity Pressure Visibility Wind Dir Wind Speed Gust Speed Precip Events Conditions
12:56 AM 70.0 °F - 66.9 °F 90% 29.74 in 10.0 mi WSW 11.5 mph - N/A   Overcast
1:08 AM 69.8 °F - 66.2 °F 88% 29.74 in 10.0 mi WSW 12.7 mph - N/A   Overcast
1:24 AM 69.8 °F - 66.2 °F 88% 29.74 in 10.0 mi West 11.5 mph - 0.01 in Rain Light Rain
1:48 AM 69.8 °F - 66.2 °F 88% 29.74 in 6.0 mi West 10.4 mph - 0.06 in   Overcast
1:56 AM 69.1 °F - 66.9 °F 93% 29.73 in 5.0 mi Variable 5.8 mph - 0.08 in   Overcast
2:06 AM 69.8 °F - 66.2 °F 88% 29.72 in 10.0 mi WSW 4.6 mph - N/A   Overcast
2:17 AM 69.8 °F - 66.2 °F 88% 29.71 in 5.0 mi WSW 5.8 mph - 0.06 in Rain Light Rain
2:27 AM 69.8 °F - 68.0 °F 94% 29.71 in 10.0 mi West 4.6 mph - 0.06 in Rain Light Rain
2:41 AM 69.8 °F - 68.0 °F 94% 29.70 in 10.0 mi WSW 5.8 mph - 0.06 in   Overcast
2:56 AM 69.1 °F - 68.0 °F 96% 29.70 in 10.0 mi WSW 5.8 mph - 0.06 in   Overcast
3:41 AM 69.8 °F - 68.0 °F 94% 29.69 in 10.0 mi West 4.6 mph - N/A   Overcast
3:56 AM 69.1 °F - 68.0 °F 96% 29.68 in 10.0 mi West 4.6 mph - N/A   Overcast
4:14 AM 69.8 °F - 68.0 °F 94% 29.69 in 10.0 mi West 5.8 mph - N/A   Overcast
4:36 AM 69.8 °F - 68.0 °F 94% 29.69 in 10.0 mi West 6.9 mph - N/A   Overcast
4:56 AM 69.1 °F - 68.0 °F 96% 29.69 in 10.0 mi West 6.9 mph - N/A   Overcast
5:56 AM 70.0 °F - 68.0 °F 93% 29.69 in 8.0 mi West 5.8 mph - N/A   Overcast
6:56 AM 70.0 °F - 68.0 °F 93% 29.70 in 8.0 mi West 6.9 mph - N/A   Overcast
7:42 AM 69.8 °F - 68.0 °F 94% 29.70 in 10.0 mi WSW 6.9 mph - N/A   Overcast
7:56 AM 70.0 °F - 68.0 °F 93% 29.70 in 10.0 mi WSW 6.9 mph - N/A   Mostly Cloudy
8:40 AM 71.6 °F - 68.0 °F 88% 29.70 in 10.0 mi West 6.9 mph - N/A   Mostly Cloudy
8:56 AM 72.0 °F - 68.0 °F 87% 29.70 in 10.0 mi WSW 6.9 mph - N/A   Mostly Cloudy
9:39 AM 75.2 °F - 66.2 °F 73% 29.71 in 10.0 mi West 8.1 mph - N/A   Overcast
9:56 AM 77.0 °F - 66.0 °F 69% 29.71 in 10.0 mi Variable 3.5 mph - N/A   Scattered Clouds
10:56 AM 82.0 °F 83.8 °F 64.9 °F 56% 29.72 in 10.0 mi West 5.8 mph - N/A   Scattered Clouds
11:56 AM 84.0 °F 85.4 °F 64.0 °F 51% 29.74 in 9.0 mi Variable 3.5 mph - N/A   Clear
12:56 PM 84.0 °F 84.9 °F 63.0 °F 49% 29.74 in 10.0 mi WSW 6.9 mph - N/A   Scattered Clouds
1:56 PM 84.0 °F 84.5 °F 62.1 °F 47% 29.75 in 10.0 mi Variable 5.8 mph - N/A   Scattered Clouds
2:56 PM 84.0 °F 84.9 °F 63.0 °F 49% 29.75 in 10.0 mi Variable 3.5 mph - N/A   Mostly Cloudy
3:56 PM 82.0 °F 83.1 °F 63.0 °F 52% 29.75 in 10.0 mi Calm Calm - N/A   Mostly Cloudy
4:56 PM 81.0 °F 81.9 °F 62.1 °F 52% 29.76 in 10.0 mi Variable 3.5 mph - N/A   Mostly Cloudy
5:56 PM 82.0 °F 83.0 °F 62.1 °F 51% 29.77 in 10.0 mi SSW 3.5 mph - N/A   Overcast
6:56 PM 79.0 °F - 61.0 °F 54% 29.78 in 10.0 mi Calm Calm - N/A   Mostly Cloudy
7:56 PM 79.0 °F - 61.0 °F 54% 29.80 in 10.0 mi Calm Calm - N/A   Partly Cloudy
8:56 PM 78.1 °F - 60.1 °F 54% 29.82 in 10.0 mi Calm Calm - 0.01 in   Clear
9:56 PM 75.0 °F - 61.0 °F 62% 29.84 in 10.0 mi Calm Calm - N/A   Clear
10:56 PM 75.0 °F - 60.1 °F 60% 29.85 in 10.0 mi Calm Calm - N/A   Clear
11:56 PM 73.0 °F - 60.1 °F 64% 29.86 in 10.0 mi West 3.5 mph - N/A   Clear